Terug naar catalogus

YAM-11

ActiefCommunicatieSSO
NORAD 68991·PAYLOAD·🇺🇸 United States

Gelanceerd May 3, 2026 vanaf Vandenberg Space Force Base

Loading…

Volgende Passages (komende 24 uur)

TLE

VersSource: Space-Track

Epoch: Sep 14, 2026, 13:02 UTC

1 68991U 26100M   26257.54354255  .00001105  00000-0  11916-3 0  9995
2 68991  97.7733 153.3619 0001930  87.1158 273.0281 14.90403983 20008

Volg YAM-11 in realtime met AllMySat

Download on the App Store